OpenBCM V2.0.2 (Linux)

Packet Radio Mailbox

IZ3LSV

[San Dona' di P. JN]

 Login: GUEST





  
LU9DCE > KEPS     31.03.18 18:01l 261 Lines 13035 Bytes #999 (0) @ WW
BID : 35598_LU9DCE
Read: GUEST
Subj: SAT TLE OF 31
Path: IZ3LSV<IK6IHL<IK7NXU<HB9CSR<IW8PGT<LU4ECL<LU9DCE
Sent: 180331/1601Z @:LU9DCE.TOR.BA.ARG.SOAM #:35598 [TORTUGUITAS] FBB7.07
From: LU9DCE@LU9DCE.TOR.BA.ARG.SOAM
To  : KEPS@WW


            __    _  _  ___  ____   ___  ____    ____  ____  ____
           (  )  / )( \/ _ \(    \ / __)(  __)  (  _ \(  _ \/ ___)
           / (_/\) \/ (\__  )) D (( (__  ) _)    ) _ ( ) _ (\___ \
           \____/\____/(___/(____/ \___)(____)  (____/(____/(____/
               ESTACION DE PACKET RADIO - BUENOS AIRES (GF05OM)
                   BOLETINES INFORMATIVOS PROGRAMADOS (BIP)
                    LU9DCE@GMX.COM - RF 147070 @ 1200 BAUD
                           telnet lu9dce.dynu.com
             BBS port 6300 / NODE port 3694 / DXCLUSTER port 9000

+------------------------------------------------------------------------------+
OSCAR 7
1 07530U 74089B   18089.88675417 -.00000048  00000-0 -19404-4 0  9991
2 07530 101.6784  58.4090 0012366 125.5506 289.6978 12.53631879984782
OSCAR 11 (UoSAT 2)
1 14781U 84021B   18090.13733286  .00000078  00000-0  15765-4 0  9990
2 14781  97.6591 129.6418 0008043 349.5450  10.5595 14.82991132832879
OSCAR 19 (LUSAT)
1 20442U 90005G   18090.07418074  .00000008  00000-0  19064-4 0  9997
2 20442  98.6043  29.0726 0012302  25.9998 334.1802 14.32890787472700
KITSAT B
1 22825U 93061C   18089.99615066 -.00000001  00000-0  17518-4 0  9994
2 22825  98.8551  64.7279 0007802 208.4824 151.5933 14.30025668278398
POSAT 1
1 22826U 93061D   18090.52073317 -.00000015  00000-0  12044-4 0  9997
2 22826  98.8492  65.3088 0008529 196.3801 163.7106 14.30356715278651
RADIO ROSTO
1 23439U 94085A   18089.59816706 -.00000044 +00000-0 -33067-4 0  9998
2 23439 064.8137 115.9350 0159901 196.2836 335.7588 11.27566665957708
JAS 2
1 24278U 96046B   18089.55190472 -.00000033 +00000-0 +53753-5 0  9992
2 24278 098.5247 299.1104 0349667 315.0807 042.2521 13.53082629067351
TECHSAT 1B
1 25397U 98043D   18089.45620145 -.00000027  00000-0  72641-5 0  9998
2 25397  98.6433  31.2266 0000421 188.1943 171.9229 14.23642355 24521
ISS (ZARYA)
1 25544U 98067A   18090.58626157  .00001630  00000-0  31800-4 0  9994
2 25544  51.6406  45.5717 0001685 278.7810  65.9688 15.54173033106445
PCSAT
1 26931U 01043C   18090.18847533 -.00000050  00000-0  12822-4 0  9991
2 26931  67.0508  70.6683 0006800 282.8883  77.1458 14.30498883861399
SAUDISAT 1C
1 27607U 02058C   18090.12995233  .00000020  00000-0  23538-4 0  9996
2 27607  64.5559 328.6265 0056196 346.5030  13.4566 14.75434203821445
CUTE-1
1 27844U 03031E   18090.49438176  .00000052  00000-0  43095-4 0  9994
2 27844  98.6891 100.2895 0008848 232.1207 127.9171 14.22102855765150
CUBESAT XI 4
1 27848U 03031J   18090.50249395  .00000036  00000-0  36380-4 0  9994
2 27848  98.6979 100.6689 0008634 243.3532 116.6762 14.21708177765029
MOZHAYETS 4
1 27939U 03042A   18090.55273899  .00000068  00000-0  20743-4 0  9999
2 27939  97.9771 231.7490 0013728  40.0214  92.7059 14.66670235775438
CUBESAT XI 5
1 28895U 05043F   18089.85760225  .00000135  00000-0  34771-4 0  9990
2 28895  97.8970 244.5360 0015795 320.6404  39.3650 14.63524512662412
CUTE-1.7+APD II
1 32785U 08021C   18090.18266285  .00000210  00000-0  28483-4 0  9994
2 32785  97.5513 106.0707 0011707 300.7928  59.2136 14.88086130537575
DELFI C3
1 32789U 08021G   18089.70828403  .00001665  00000-0  11867-3 0  9992
2 32789  97.5208 146.4800 0012202 198.9889 161.0885 15.05862276539978
SEEDS
1 32791U 08021J   18089.52541766  .00000386  00000-0  44943-4 0  9990
2 32791  97.5420 110.6204 0011825 281.7934  78.1958 14.90501242537793
YUBELEINY
1 32953U 08025A   18090.53284662 -.00000005  00000-0 -10998-3 0  9998
2 32953  82.5023  60.9657 0019814  22.6203 337.5745 12.43082477447125
PRISM (HITOMI)
1 33493U 09002B   18090.45610618  .00000496  00000-0  49715-4 0  9991
2 33493  98.1381 349.5369 0014414 208.9769 151.0649 14.96126623498724
KKS-1 (KISEKI)
1 33499U 09002H   18090.52228546  .00000116  00000-0  25262-4 0  9990
2 33499  98.3530 269.7769 0009347 172.3299 187.8053 14.75308977493728
SWISSCUBE
1 35932U 09051B   18089.41498152  .00000131  00000-0  40726-4 0  9995
2 35932  98.5328 238.7343 0008889  93.1203 267.1012 14.56136321451977
BEESAT
1 35933U 09051C   18090.40981696  .00000111  00000-0  36133-4 0  9992
2 35933  98.5370 241.2493 0007085 101.5742 258.6250 14.56243339452225
ITUPSAT 1
1 35935U 09051E   18090.35196257  .00000075  00000-0  28383-4 0  9996
2 35935  98.5482 241.4440 0009388  97.4789 262.7474 14.55422885452001
XIWANG-1 (HOPE-1)
1 36122U 09072B   18089.57533308 -.00000055 +00000-0 -32476-4 0  9990
2 36122 100.0810 107.8719 0006841 296.5093 063.5319 13.16343970398208
TISAT 1
1 36799U 10035E   18089.85395159  .00000504  00000-0  57359-4 0  9996
2 36799  98.0933 224.0556 0013727 105.0864 255.1873 14.90737164418484
JUGNU
1 37839U 11058B   18090.21453133  .00000314  00000-0  25602-4 0  9992
2 37839  19.9605 150.0572 0019114 107.0108 295.4331 14.12614050334332
SRMSAT
1 37841U 11058D   18089.56782654  .00000317  00000-0  28958-4 0  9994
2 37841  19.9710 201.5620 0011909 347.8931 115.6475 14.10602299333768
M-CUBED/EXP-1 PRIME
1 37855U 11061F   18089.98994055  .00001429  00000-0  81097-4 0  9997
2 37855 101.7250 112.5083 0177001 313.6722  44.9933 15.04226068349895
HORYU 2
1 38340U 12025D   18089.54767415  .00000207  00000-0  38482-4 0  9991
2 38340  98.3720 108.5474 0012928 100.5872 259.6793 14.75520357315518
STRAND 1
1 39090U 13009E   18089.80833233  .00000032  00000-0  26662-4 0  9991
2 39090  98.5297 297.1784 0009459 163.2260 196.9240 14.35017139266580
SOMP
1 39134U 13015E   18089.85712172  .00001144  00000-0  63870-4 0  9997
2 39134  64.8650  20.2513 0020941 219.8194 140.1398 15.18947214273004
BEESAT 3
1 39135U 13015F   18089.22398073  .00001111  00000-0  66440-4 0  9999
2 39135  64.8706  34.6380 0026278 246.3023 113.5345 15.16503828272678
BEESAT 2
1 39136U 13015G   18089.89178978  .00000914  00000-0  57281-4 0  9996
2 39136  64.8708  35.0631 0026814 245.5147 114.3182 15.15980108272722
CUBEBUG 1
1 39153U 13018D   18090.24088985  .00000207  00000-0  34010-4 0  9997
2 39153  97.9765 185.9566 0016709 194.2023 165.8722 14.80362687266055
ZACUBE
1 39417U 13066B   18090.13968773  .00000234  00000-0  35786-4 0  9994
2 39417  97.5956 122.9122 0060309  51.8884 308.7745 14.80899717235242
TRITON 1
1 39427U 13066M   18089.55571622  .00000170  00000-0  35014-4 0  9995
2 39427  97.6397  90.7041 0114868 150.6499 210.1225 14.67628375233045
GOMX 1
1 39430U 13066Q   18090.46719933  .00000148  00000-0  36121-4 0  9995
2 39430  97.6912  72.9719 0150688 215.4583 143.6530 14.59045321231828
HUMSAT D
1 39433U 13066T   18089.69832075  .00000538  00000-0  58442-4 0  9997
2 39433  97.6132 148.7891 0030422 346.7763  13.2656 14.91790353236722
50 SAT
1 39436U 13066W   18090.32238437  .00149282  00000-0  12833-2 0  9996
2 39436  97.7122 220.6969 0001767 208.2183 151.8982 15.68869456241092
CUBEBUG 2
1 39440U 13066AA  18089.55150237  .00000232  00000-0  39098-4 0  9990
2 39440  97.6066 109.4400 0082134  90.9773 270.0849 14.75633755234327
FUNCUBE 1
1 39444U 13066AE  18089.63610570  .00000287  00000-0  41756-4 0  9998
2 39444  97.5968 123.8607 0059388  49.3076 311.3276 14.81668475234023
UWE-3
1 39446U 13066AG  18090.11503417  .00000222  00000-0  36074-4 0  9992
2 39446  97.5997 116.0574 0071730  70.9152 289.9810 14.78167970233588
SPROUT
1 39770U 14029E   18090.52604853  .00000817  00000-0  97842-4 0  9993
2 39770  97.8718 192.2473 0010866 102.2392 258.0055 14.86743610208821
UNISAT 6
1 40012U 14033C   18090.54506366  .00000211  00000-0  38948-4 0  9991
2 40012  97.8199 329.6445 0059935  89.3716 271.4360 14.73784627203265
DUCHIFAT 1
1 40021U 14033M   18090.30722918  .00000463  00000-0  53529-4 0  9999
2 40021  97.9173   8.8856 0014498  76.3548 283.9283 14.90239914205351
QB50P1
1 40025U 14033R   18089.70850270  .00000307  00000-0  38928-4 0  9991
2 40025  97.9077   5.2609 0013988  83.7205 276.5605 14.88665527205110
CHUBUSAT 1
1 40300U 14070C   18090.21776606  .00000786  00000-0  37903-4 0  9999
2 40300  97.3686 169.5692 0020523 170.7250 246.7741 15.21455280188427
NUDT-PHONESAT
1 40900U 15049B   18090.09130758  .00001957  00000-0  91319-4 0  9992
2 40900  97.4433  99.2561 0012084 307.5267  52.4870 15.20983440140043
ZDPS 2A
1 40901U 15049C   18090.50799025  .00000791  00000-0  43445-4 0  9999
2 40901  97.4603  98.0713 0012462 312.8905  47.1281 15.16944847139887
ZDPS 2B
1 40902U 15049D   18090.07542372  .00000764  00000-0  42329-4 0  9993
2 40902  97.4497  95.7975 0012504 311.3770  48.6387 15.16744294139803
XW-2A
1 40903U 15049E   18090.54650438  .00001756  00000-0  45793-4 0  9999
2 40903  97.3933 124.6059 0012991 315.6377  44.3827 15.40186971141852
KAITUO 1A
1 40904U 15049F   18090.48142500  .00000897  00000-0  51569-4 0  9992
2 40904  97.4594  95.5209 0013680 313.5160 198.9641 15.14940768139730
OBJECT G
1 40905U 15049G   18090.55424029  .00000376  00000-0  24311-4 0  9997
2 40905  97.4588  93.7965 0014412 302.9623  57.0222 15.13902343139672
XW-2C
1 40906U 15049H   18090.52041406  .00000606  00000-0  35836-4 0  9999
2 40906  97.4606  95.4404 0013627 302.8598  57.1322 15.15083521139737
XW-2D
1 40907U 15049J   18090.54644589  .00000638  00000-0  37399-4 0  9994
2 40907  97.4578  95.1725 0012960 300.6432  59.3522 15.15226443139740
LILACSAT 2
1 40908U 15049K   18090.06372536  .00000320  00000-0  21541-4 0  9992
2 40908  97.4688  94.1570 0014675 303.0558  56.9264 15.13446576139555
XW-2F
1 40910U 15049M   18090.55479285  .00000949  00000-0  52275-4 0  9993
2 40910  97.4584  96.3559 0013601 296.1232  63.8601 15.16365576139682
XW-2B
1 40911U 15049N   18090.49510942  .00000624  00000-0  36757-4 0  9990
2 40911  97.4615  95.6300 0012882 301.4405  58.5568 15.15173275139636
